[Iaude] MPEC G78: 2024 GY [a=1.53,e=0.61,i=3.5,H=21.5,PHA]

mpec at cfa.harvard.edu mpec at cfa.harvard.edu
Sat Apr 6 09:45:09 EDT 2024


M.P.E.C. 2024-G78                                 Issued 2024 April 6, 13:43 UT

     The Minor Planet Electronic Circulars contain information on unusual
         minor planets, routine data on comets and natural satellites,
         and occasional editorial announcements.  They are published
    on behalf of Division F of the International Astronomical Union by the
          Minor Planet Center, Smithsonian Astrophysical Observatory,
                          Cambridge, MA 02138, U.S.A.
			  
             Prepared using the Tamkin Foundation Computer Network

                              MPC at CFA.HARVARD.EDU
            URL https://www.minorplanetcenter.net/    ISSN 1523-6714

                                    2024 GY                                     


Observations:
     K24G00Y*KC2024 04 04.26870 14 48 12.23 -06 36 14.0          19.9 GVEG078W94
     K24G00Y KC2024 04 04.27483 14 48 10.25 -06 36 04.9                VEG078W94
     K24G00Y KC2024 04 04.28094 14 48 08.31 -06 35 55.8          19.4 GVEG078W94
     K24G00Y KC2024 04 04.29623 14 48 03.38 -06 35 34.1          19.6 GVEG078X10
     K24G00Y KC2024 04 04.30160 14 48 01.67 -06 35 25.8          19.1 GVEG078X10
     K24G00Y KC2024 04 04.30694 14 47 59.97 -06 35 18.2          19.9 GVEG078X10
     K24G00Y KB2024 04 04.35089 14 47 46.860-06 34 46.09         20.4 RZEG078H36
     K24G00Y KB2024 04 04.35821 14 47 44.602-06 34 35.87         19.8 RZEG078H36
     K24G00Y KB2024 04 04.36184 14 47 43.382-06 34 29.50         19.4 RZEG078H36
     K24G00Y KC2024 04 04.36429314 47 43.120-06 34 23.34         19.98GVEG078I52
     K24G00Y KC2024 04 04.36758314 47 42.076-06 34 18.62         20.02GVEG078I52
     K24G00Y KC2024 04 04.37088014 47 41.028-06 34 13.69         20.12GVEG078I52
     K24G00Y KC2024 04 04.37419714 47 39.980-06 34 08.80         20.25GVEG078I52
     K24G00Y 1C2024 04 04.99395 14 44 32.68 -06 19 15.7          20.9 VXEG078033
     K24G00Y 1C2024 04 04.99429 14 44 32.60 -06 19 15.3          20.7 VXEG078033
     K24G00Y 1C2024 04 04.99463 14 44 32.47 -06 19 14.3          20.5 VXEG078033
     K24G00Y 1C2024 04 04.99499 14 44 32.38 -06 19 14.5          20.7 VXEG078033
     K24G00Y KC2024 04 05.28734714 43 05.84 -06 12 11.2          19.9 GXEG078858
     K24G00Y KC2024 04 05.29442614 43 03.67 -06 12 01.2          20.1 GXEG078858
     K24G00Y KC2024 04 05.30105914 43 01.64 -06 11 51.5          20.1 GXEG078858
     K24G00Y KC2024 04 05.31832 14 42 55.16 -06 10 57.4          19.1 GVEG078W95
     K24G00Y KB2024 04 05.32183 14 42 54.962-06 11 24.72         20.2 GVEG078734
     K24G00Y KC2024 04 05.32368 14 42 53.49 -06 10 49.7          19.3 GVEG078W95
     K24G00Y KB2024 04 05.32653 14 42 53.568-06 11 17.12         19.8 GVEG078734
     K24G00Y KC2024 04 05.32901 14 42 51.86 -06 10 41.9                VEG078W95
     K24G00Y KB2024 04 05.33086 14 42 52.109-06 11 11.58         20.2 GVEG078734
     K24G00Y KB2024 04 05.91888 14 40 01.558-05 56 57.34         19.7 GXEG078L87
     K24G00Y KB2024 04 05.92499 14 39 59.719-05 56 48.08         19.9 GXEG078L87
     K24G00Y KB2024 04 05.93112 14 39 57.888-05 56 39.80         19.6 GXEG078L87
     K24G00Y KC2024 04 06.01081 14 39 34.00 -05 55 24.2          20.4 GXEG078K83
     K24G00Y KB2024 04 06.01286014 39 33.76 -05 55 20.3          19.8 GXEG078958
     K24G00Y KB2024 04 06.01890014 39 32.00 -05 55 11.7          19.6 GXEG078958
     K24G00Y KB2024 04 06.02015714 39 32.786-05 54 36.83         19.3 VZEG078Y05
     K24G00Y KB2024 04 06.02488414 39 30.16 -05 55 03.6          19.6 GXEG078958
     K24G00Y KB2024 04 06.02790614 39 30.492-05 54 25.45         20.6 VZEG078Y05
     K24G00Y KC2024 04 06.03095 14 39 28.03 -05 54 56.2          20.1 GXEG078K83
     K24G00Y |C2024 04 06.17094014 38 48.860-05 51 07.40         20.1 GVEG078807
     K24G00Y |C2024 04 06.17314014 38 48.230-05 51 04.50         20.3 GVEG078807
     K24G00Y |C2024 04 06.17534014 38 47.570-05 51 01.50         20.1 GVEG078807
     K24G00Y |C2024 04 06.17754014 38 46.940-05 50 58.30         20.1 GVEG078807
     K24G00Y KC2024 04 06.27241914 38 19.27 -05 49 24.8          20.2 GVEG078H21
     K24G00Y KC2024 04 06.27521614 38 18.44 -05 49 20.8          20.5 GVEG078H21
     K24G00Y KC2024 04 06.27801214 38 17.61 -05 49 17.2          21.1 GVEG078H21
     K24G00Y KC2024 04 06.28080914 38 16.82 -05 49 13.6          20.7 GVEG078H21

Observer details:
033 Karl Schwarzschild Observatory, Tautenburg.  Observers S. Melnikov, C.
    Hogner, F. Ludwig, M. Hartmann, B. Stecklum.  Measurer B. Stecklum.
    1.34-m f/3 Schmidt + CCD.
734 Farpoint Observatory, Eskridge.  Observers D. Cromer, G. Hug, D. Goodin,
    R. Valentine, P. Lessig.  Measurer G. Hug.  0.69-m f/3.54 reflector + CMO.
807 Cerro Tololo Observatory, La Serena.  Observers T. Linder, R. Holmes.
    0.61-m f/6.8 Ritchey-Chretien + CCD.
858 Tebbutt Observatory, Edgewood.  Observer F. B. Zoltowski.  0.51-m f/8.1
    Schmidt-Cassegrain + CCD.
958 Observatoire de Dax.  Observer P. Dupouy.  0.50-m f/4.5 Reflector + CMO.
H21 Astronomical Research Observatory, Westfield.  Observer R. Holmes.
    Measurers T. Linder, R. Holmes, L. Horn.  0.76-m f/3.0 astrograph + CCD.
H36 Sandlot Observatory, Scranton.  Observer G. Hug.  0.56-m f/4.8 reflector +
    CMO.
I52 Steward Observatory, Mt. Lemmon Station.  Observer R. A. Kowalski.
    Measurers T. Beuden, V. F. Carvajal, D. Fay, J. B. Fazekas, D. C. Fuls, A.
    R. Gibbs, A. D. Grauer, H. Groeller, J. K. Hogan, R. A. Kowalski, S. M.
    Larson, G. J. Leonard, D. Rankin, R. L. Seaman, F. C. Shelly, K. W.
    Wierzchos.  1.0-m prime focus + CCD.
K83 Beppe Forti Astronomical Observatory, Montelupo.  Observers M. Tombelli,
    M. Iozzi, F. Cheli, G. Interrante, M. Lombardo, A. Mazzanti, A. Squilloni.
    Measurers M. Tombelli, F. Bernardi, A. Squilloni, F. Cheli.  0.40-m f/8
    Ritchey-Chretien + CCD.
L87 Moonbase South Observatory, Hakos.  Observer G. Duszanowicz.  0.28-m f/1.9
    reflector + CMO.
W94 MAP, San Pedro de Atacama.  Observers A. Maury, G. Attard.  Measurers A.
    Maury, G. Attard, D. Parrott, F. Signoret, J.-M. Mari.  0.36-m f/1.9
    Schmidt astrograph + CCD.
W95 Observatorio Panameno, San Pedro de Atacama.  Observers A. Maury, G.
    Attard, F. Signoret.  Measurers A. Maury, G. Attard, D. Parrott, J.-M.
    Mari, F. Signoret.  0.40-m f/3.8  reflector + CCD.
X10 OVTLN, San Pedro de Atacama.  Observers A. Maury, G. Attard, F. Signoret.
    Measurers A. Maury, G. Attard, D. Parrott, J.-M. Mari, F. Signoret.
    0.50-m f/4  reflector + CCD.
Y05 SONEAR Wykrota-CEAMIG, Serra da Piedade.  Observers C. Jacques, A.
    Caetano, E. Pimentel.  Measurer C. Jacques.  0.45-m f/2.9 reflector + CMO.

Orbital elements:
2024 GY                                             PHA, Earth MOID = 0.0084 AU
Epoch 2024 Mar. 31.0 TT = JDT 2460400.5                 Veres                   
M  36.41507              (2000.0)            P               Q                  
n   0.52025298     Peri.  281.88643     +0.02465242     -0.99959499             
a   1.5310628      Node   166.67633     +0.93954268     +0.01830805             
e   0.6101482      Incl.    3.53691     +0.34154328     +0.02178712             
P   1.89           H   21.57          G   0.15           U   8                  
Residuals in seconds of arc
240404 W94  0.5+  0.3+    240404 033  0.2+  0.4+    240406 958  0.1-  1.0+
240404 W94  0.2+  0.3+    240404 033  0.6+  0.3-    240406 958  0.4+  1.3+
240404 W94  0.5+  0.4+    240405 858  0.2+  0.1-    240406 Y05  1.2-  1.4+
240404 X10  0.1-  0.5-    240405 858  0.2+  0.0     240406 958  0.6-  1.2+
240404 X10  0.0   0.1-    240405 858  0.1+  0.3+    240406 Y05  1.4-  2.2+
240404 X10  0.1+  0.4-    240405 W95  0.6+  0.4-    240406 K83  0.7-  0.4+
240404 H36  0.6-  0.2-    240405 734  0.2+  0.5-    240406 807  0.2-  0.0
240404 H36  0.4+  0.8-    240405 W95  0.3+  0.4-    240406 807  0.1+  0.1-
240404 H36  0.6-  0.2+    240405 734  0.8+  0.4+    240406 807  0.0   0.1-
240404 I52  0.1-  0.1+    240405 W95  0.4+  0.2-    240406 807  0.3+  0.1+
240404 I52  0.0   0.0     240405 734  1.2-  0.2-    240406 H21  0.0   0.1-
240404 I52  0.0   0.1+    240405 L87  0.5+  0.5-    240406 H21  0.1-  0.2+
240404 I52  0.1+  0.1+    240405 L87  0.4+  0.4+    240406 H21  0.2-  0.0
240404 033  0.3+  0.1-    240405 L87  0.4+  0.3+    240406 H21  0.3+  0.2-
240404 033  0.6+  0.1-    240406 K83  1.0-  0.1+

Ephemeris:
2024 GY                  a,e,i = 1.53, 0.61, 4                   q = 0.5969
Date    TT    R. A. (2000) Decl.     Delta      r    Elong.  Phase     V
2024 03 07    18 28 51.5 -19 58 54   0.1819  0.9452    69.8    99.8    21.4
...
2024 03 22    16 13 35.4 -13 09 50   0.2031  1.1046   117.4    53.2    20.3
...
2024 03 30    15 17 53.0 -08 58 28   0.2359  1.1871   139.1    33.4    20.2
...
2024 04 05    14 44 30.7 -06 18 41   0.2701  1.2474   153.2    21.2    20.2
2024 04 06    14 39 37.1 -05 55 16   0.2766  1.2573   155.3    19.4    20.3
2024 04 07    14 34 54.6 -05 32 50   0.2833  1.2672   157.4    17.7    20.3
...
2024 04 13    14 10 20.3 -03 38 33   0.3283  1.3253   167.7     9.2    20.4
...
2024 04 21    13 46 18.4 -01 56 37   0.3999  1.4003   169.8     7.3    20.8
...
2024 05 06    13 21 18.4 -00 41 04   0.5654  1.5327   152.5    17.7    22.2

M. P. C. Staff               (C) Copyright 2024 MPC           M.P.E.C. 2024-G78





More information about the Iaude mailing list